GW5203 Weather Reports


time (UTC)temp
C
wind
direction
speed
KPH
gust
KPH
rain 1hr
cm
rain 24hr
cm
rain mn
cm
humidity
%
barometer
mb
20260901110022 23 195 0.0 1.6 0.00 0.23 0.00 91 1008.1
20260901105018 23 0.0 0.0 0.00 0.23 0.00 91 1008.0
20260901104034 23 194 0.0 3.2 0.00 0.23 0.00 90 1008.0
20260901103031 23 191 1.6 3.2 0.00 0.23 0.00 90 1008.0
20260901102027 23 0.0 0.0 0.00 0.23 0.00 90 1007.9
20260901101023 23 188 0.0 1.6 0.00 0.23 0.00 90 1007.9
20260901100018 23 187 0.0 3.2 0.00 0.23 0.00 90 1007.9
20260901095054 23 194 0.0 3.2 0.00 0.23 0.00 90 1008.0
20260901094029 23 196 1.6 3.2 0.00 0.23 0.00 90 1007.8
20260901093046 23 220 0.0 3.2 0.00 0.23 0.00 90 1007.8
20260901092022 23 229 0.0 3.2 0.00 0.23 0.00 90 1007.7
20260901091018 23 289 1.6 4.8 0.00 0.23 0.00 90 1007.7
20260901090035 23 274 0.0 3.2 0.00 0.23 0.00 90 1007.7
20260901085031 23 247 1.6 3.2 0.00 0.23 0.00 90 1007.7
20260901084027 23 233 0.0 1.6 0.00 0.23 0.00 90 1007.6
20260901083023 23 233 0.0 1.6 0.00 0.23 0.00 90 1007.7
20260901082019 23 233 0.0 1.6 0.00 0.23 0.00 90 1007.6
20260901081035 23 162 0.0 3.2 0.00 0.23 0.00 90 1007.8
20260901080030 23 263 1.6 4.8 0.00 0.23 0.00 90 1007.8
20260901075027 23 226 1.6 3.2 0.00 0.23 0.00 90 1007.6
20260901074023 23 257 0.0 1.6 0.00 0.23 0.00 90 1007.8
20260901073019 23 257 0.0 3.2 0.00 0.23 0.00 90 1007.7
20260901072034 23 260 0.0 1.6 0.00 0.23 0.00 89 1007.7
20260901071030 23 261 0.0 1.6 0.00 0.23 0.00 89 1007.7
20260901070026 23 285 0.0 3.2 0.00 0.23 0.00 89 1007.6
20260901065101 23 234 1.6 3.2 0.00 0.23 0.00 89 1007.5
20260901064017 23 262 0.0 1.6 0.00 0.23 0.00 89 1007.6
20260901063032 24 0.0 0.0 0.00 0.23 0.00 89 1007.6
20260901062028 24 262 0.0 1.6 0.00 0.23 0.00 89 1007.4
20260901061024 24 262 0.0 1.6 0.00 0.23 0.00 89 1007.5
20260901060021 24 261 0.0 1.6 0.00 0.23 0.00 89 1007.6
20260901055057 24 244 0.0 3.2 0.00 0.23 0.00 89 1007.6
20260901054033 24 280 0.0 3.2 0.00 0.23 0.00 89 1007.6
20260901053029 24 301 1.6 3.2 0.00 0.23 0.00 88 1007.5
20260901052025 24 277 0.0 3.2 0.00 0.23 0.00 88 1007.6
20260901051021 24 187 0.0 3.2 0.00 0.23 0.00 88 1007.6
20260901050017 24 257 0.0 3.2 0.00 0.23 0.00 88 1007.8
20260901045034 24 180 0.0 3.2 0.00 0.23 0.00 88 1007.8
20260901044029 24 255 1.6 4.8 0.00 0.23 0.00 88 1007.9
20260901043025 24 266 1.6 3.2 0.00 0.23 0.00 88 1008.0
20260901042021 24 210 0.0 1.6 0.00 0.23 0.00 87 1008.0
20260901041017 24 197 0.0 1.6 0.00 0.23 0.00 87 1008.0
20260901040034 24 196 0.0 1.6 0.00 0.23 0.00 87 1008.2
20260901035030 25 0.0 0.0 0.00 0.23 0.00 87 1008.3
20260901034026 25 0.0 0.0 0.00 0.23 0.00 87 1008.4
20260901033043 25 192 0.0 1.6 0.00 0.23 0.00 86 1008.5
20260901032018 25 0.0 0.0 0.00 0.23 0.00 86 1008.7
20260901031034 25 176 0.0 1.6 0.00 0.23 0.00 86 1008.9
20260901030030 25 0.0 0.0 0.00 0.25 0.00 86 1008.7
20260901025026 25 196 0.0 3.2 0.00 0.25 0.00 86 1008.9
20260901024023 25 287 1.6 1.6 0.00 0.25 0.00 85 1008.6
20260901023019 25 0.0 0.0 0.00 0.28 0.00 85 1008.9
20260901022035 25 288 1.6 3.2 0.00 0.30 0.00 85 1009.0
20260901021051 25 268 1.6 3.2 0.00 0.30 0.00 85 1009.4
20260901020047 26 0.0 0.0 0.00 0.30 0.00 85 1008.9
20260901015024 26 209 0.0 1.6 0.00 0.30 0.00 85 1009.1
20260901014019 26 176 0.0 1.6 0.00 0.30 0.00 85 1008.6
20260901013035 26 153 0.0 3.2 0.00 0.30 0.00 84 1008.6
20260901012051 26 166 1.6 3.2 0.00 0.33 0.00 84 1008.4
20260901011108 26 0.0 0.0 0.00 0.33 0.00 84 1008.6
20260901010022 26 187 1.6 3.2 0.00 0.33 0.00 84 1008.6
20260901005018 26 187 0.0 3.2 0.00 0.33 0.00 83 1008.9
20260901004034 26 187 0.0 1.6 0.00 0.33 0.00 83 1009.0
20260901003051 27 184 0.0 4.8 0.00 0.33 0.00 83 1009.1
20260901002027 27 173 1.6 4.8 0.00 0.33 0.00 83 1008.9
20260901001023 27 257 0.0 1.6 0.00 0.33 0.00 82 1008.9
20260901000020 27 277 0.0 3.2 0.00 0.33 0.33 82 1008.6
20260831235035 27 221 0.0 1.6 0.00 0.33 0.33 82 1008.2
20260831234032 27 254 1.6 6.4 0.00 0.33 0.33 82 1008.0
20260831233028 27 119 4.8 16.1 0.00 0.33 0.33 81 1007.3
20260831232043 28 156 3.2 3.2 0.00 0.33 0.33 80 1008.7
20260831231019 28 250 0.0 1.6 0.00 0.33 0.33 80 1009.2
20260831230035 28 263 1.6 6.4 0.00 0.33 0.33 80 1008.9
20260831225050 28 187 0.0 1.6 0.00 0.33 0.33 79 1008.3
20260831224026 28 191 1.6 3.2 0.00 0.33 0.33 79 1008.3
20260831223022 28 242 3.2 9.7 0.00 0.36 0.33 79 1008.4
20260831222018 28 155 0.0 1.6 0.00 0.36 0.33 78 1008.5
20260831221035 28 272 1.6 3.2 0.00 0.36 0.33 78 1008.6
20260831220031 29 242 1.6 3.2 0.00 0.36 0.33 78 1008.4
20260831215046 29 275 3.2 11.3 0.00 0.36 0.33 78 1008.3
20260831214022 29 266 1.6 9.7 0.00 0.36 0.33 78 1008.2
20260831213018 29 263 3.2 6.4 0.00 0.36 0.33 77 1008.1
20260831212034 29 172 1.6 4.8 0.00 0.36 0.33 77 1007.9
20260831211030 29 192 1.6 12.9 0.00 0.36 0.33 78 1007.8
20260831210026 29 210 3.2 11.3 0.00 0.36 0.33 78 1007.7
20260831205022 29 178 1.6 6.4 0.00 0.36 0.33 78 1007.8
20260831204018 29 226 1.6 14.5 0.00 0.36 0.33 78 1007.9
20260831203054 29 277 3.2 6.4 0.00 0.36 0.33 78 1008.2
20260831202030 29 241 1.6 4.8 0.00 0.36 0.33 77 1008.3
20260831201026 29 284 3.2 9.7 0.00 0.36 0.33 77 1008.3
20260831200023 30 286 3.2 11.3 0.00 0.36 0.33 77 1008.4
20260831195018 30 255 3.2 11.3 0.00 0.38 0.33 77 1007.8
20260831194034 29 223 4.8 14.5 0.00 0.41 0.33 78 1007.9
20260831193051 29 229 3.2 9.7 0.00 0.43 0.33 77 1007.7
20260831192047 29 299 3.2 11.3 0.00 0.43 0.33 77 1007.8
20260831191023 30 281 4.8 17.7 0.00 0.43 0.33 78 1007.8
20260831190019 30 269 8.0 29.0 0.00 0.43 0.33 79 1007.5
20260831185055 30 271 4.8 12.9 0.00 0.43 0.33 79 1007.8
20260831184031 30 242 3.2 9.7 0.00 0.48 0.33 81 1007.8
20260831183027 30 194 6.4 16.1 0.00 0.48 0.33 81 1007.6
20260831182043 29 225 3.2 11.3 0.00 0.48 0.33 83 1007.5
20260831181019 29 196 4.8 14.5 0.00 0.48 0.33 83 1007.6
20260831180035 28 201 3.2 14.5 0.00 0.48 0.33 84 1007.4
20260831175051 28 223 6.4 22.5 0.00 0.48 0.33 84 1007.5
20260831174107 28 162 4.8 11.3 0.00 0.48 0.33 85 1007.8
20260831173023 27 291 3.2 16.1 0.00 0.48 0.33 86 1008.1
20260831172039 27 258 3.2 9.7 0.00 0.48 0.33 88 1007.9
20260831171035 26 212 3.2 11.3 0.00 0.48 0.33 88 1008.0
20260831170030 26 186 6.4 20.9 0.00 0.48 0.33 88 1008.0
20260831165047 25 192 4.8 16.1 0.00 0.48 0.33 90 1008.1
20260831164022 25 164 4.8 14.5 0.00 0.48 0.33 90 1008.1
20260831163018 24 185 4.8 20.9 0.00 0.48 0.33 91 1008.2
20260831162035 23 156 3.2 6.4 0.00 0.48 0.33 92 1008.3
20260831161031 23 142 3.2 6.4 0.00 0.48 0.33 92 1008.4
20260831160027 22 121 3.2 11.3 0.00 0.48 0.33 92 1008.6
20260831155043 22 167 3.2 16.1 0.00 0.48 0.33 92 1008.6
20260831154019 22 140 3.2 11.3 0.00 0.48 0.33 92 1008.6
20260831153016 21 132 3.2 9.7 0.00 0.48 0.33 92 1008.6
20260831152031 21 137 4.8 14.5 0.00 0.48 0.33 92 1008.7
20260831151027 21 153 4.8 12.9 0.00 0.48 0.33 92 1008.8
20260831150023 21 118 1.6 4.8 0.00 0.48 0.33 92 1008.7
20260831145020 21 151 1.6 4.8 0.00 0.48 0.33 92 1008.8
20260831144016 21 166 1.6 6.4 0.00 0.48 0.33 92 1008.6
20260831143033 20 132 1.6 6.4 0.00 0.48 0.33 92 1008.6
20260831142029 20 134 3.2 11.3 0.00 0.48 0.33 92 1008.5
20260831141025 20 134 3.2 9.7 0.00 0.48 0.33 92 1008.6
20260831140042 20 136 3.2 4.8 0.00 0.48 0.33 92 1008.7
20260831135018 20 137 1.6 6.4 0.00 0.48 0.33 91 1008.5
20260831134034 20 145 3.2 6.4 0.00 0.48 0.33 91 1008.7
20260831133030 20 136 0.0 4.8 0.13 0.48 0.33 91 1008.7
20260831132026 20 131 0.0 3.2 0.18 0.48 0.33 91 1008.8
20260831131042 20 132 0.0 1.6 0.20 0.48 0.33 91 1008.7
20260831130018 20 102 1.6 4.8 0.23 0.48 0.33 90 1008.6
20260831125035 20 112 1.6 3.2 0.23 0.56 0.33 90 1008.5
20260831124030 20 117 1.6 4.8 0.23 0.64 0.33 90 1008.8
20260831123026 21 233 1.6 4.8 0.13 0.51 0.20 89 1008.8
20260831122022 21 291 0.0 1.6 0.05 0.48 0.15 89 1008.8
20260831121037 21 289 1.6 4.8 0.03 0.48 0.10 89 1008.6
20260831120034 21 281 0.0 3.2 0.00 0.48 0.08 89 1008.1
20260831115050 21 213 1.6 3.2 0.00 0.51 0.08 89 1008.0
20260831114047 21 203 0.0 1.6 0.00 0.53 0.08 89 1007.8
20260831113022 21 178 0.0 3.2 0.00 0.56 0.08 89 1007.8
20260831112039 21 175 0.0 1.6 0.00 0.56 0.08 89 1007.6
20260831111034 21 167 0.0 4.8 0.00 0.56 0.08 89 1007.7